Weather History for Sitka, AK

Change the Weather History Date:

Wednesday, August 28, 2013

  Actual Average Record
Temperature  
Mean Temperature 58 °F -  
Max Temperature 66 °F 61 °F 76 °F (1983)
Min Temperature 51 °F 50 °F 23 °F (1971)
Degree Days  
Heating Degree Days 8    
Growing Degree Days 8 (Base 50)    
Moisture  
Dew Point 53 °F    
Average Humidity 83    
Maximum Humidity 93    
Minimum Humidity 70    
Precipitation  
Precipitation 0.00 in - - ()
Sea Level Pressure  
Sea Level Pressure 29.87 in    
Wind  
Wind Speed 2 mph (South)    
Max Wind Speed 7 mph    
Max Gust Speed -    
Visibility 10 miles    
Events      
Averages and records for this station are not official NWS values.
T = Trace of Precipitation, MM = Missing Value Source: NWS Daily Summary

Daily Weather History Graph

Daily Weather History Graph

Search for Another Location

Airport:

Trip Planner

Search our weather history database for the weather conditions in past years. The results will help you decide how hot, cold, wet, or windy it might be!

Date:

Astronomy

Aug. 28, 2013 Rise Set
Actual Time 5:56 AM AKDT 8:07 PM AKDT
Civil Twilight 5:14 AM AKDT 8:48 PM AKDT
Nautical Twilight 4:21 AM AKDT 9:41 PM AKDT
Astronomical Twilight 3:15 AM AKDT 10:45 PM AKDT
Moon 11:18 PM AKDT (8/28) 3:28 PM AKDT (8/28)
Length of Visible Light 15h 34m
Length of Day
14h 11m
Last Quarter, 46% of the Moon is Illuminated
Aug 28
Last Quarter
Sep 5
New
Sep 12
First Quarter
Sep 19
Full
Sep 26
Last Quarter

Hourly Weather History & Observations

Time (AKDT) Temp. Dew Point Humidity Pressure Visibility Wind Dir Wind Speed Gust Speed Precip Events Conditions
12:53 AM 55.9 °F 53.1 °F 90% 29.87 in 10.0 mi East 3.5 mph - N/A   Mostly Cloudy
1:53 AM 55.9 °F 53.1 °F 90% 29.87 in 10.0 mi Calm Calm - N/A   Mostly Cloudy
2:13 AM 55.0 °F 53.1 °F 93% 29.87 in 10.0 mi Calm Calm - N/A   Mostly Cloudy
2:53 AM 54.0 °F 52.0 °F 93% 29.87 in 10.0 mi Calm Calm - N/A   Clear
3:27 AM 54.0 °F 52.0 °F 93% 29.87 in 10.0 mi East 4.6 mph - N/A   Partly Cloudy
3:53 AM 54.0 °F 52.0 °F 93% 29.87 in 10.0 mi Calm Calm - N/A   Clear
4:53 AM 52.0 °F 50.0 °F 93% 29.87 in 10.0 mi Calm Calm - N/A   Clear
5:53 AM 51.1 °F 48.9 °F 92% 29.87 in 10.0 mi ENE 3.5 mph - N/A   Partly Cloudy
6:53 AM 52.0 °F 50.0 °F 93% 29.88 in 10.0 mi Calm Calm - N/A   Clear
7:53 AM 55.9 °F 53.1 °F 90% 29.88 in 10.0 mi Calm Calm - N/A   Clear
8:53 AM 57.0 °F 52.0 °F 83% 29.88 in 10.0 mi Calm Calm - N/A   Clear
9:53 AM 57.0 °F 52.0 °F 83% 29.88 in 10.0 mi WSW 3.5 mph - N/A   Clear
10:53 AM 61.0 °F 52.0 °F 72% 29.88 in 10.0 mi SW 4.6 mph - N/A   Partly Cloudy
11:53 AM 60.1 °F 52.0 °F 75% 29.88 in 10.0 mi SW 3.5 mph - N/A   Scattered Clouds
12:53 PM 62.1 °F 54.0 °F 75% 29.88 in 10.0 mi SW 6.9 mph - N/A   Scattered Clouds
1:53 PM 64.0 °F 55.9 °F 75% 29.88 in 10.0 mi SW 6.9 mph - N/A   Scattered Clouds
2:53 PM 64.0 °F 55.9 °F 75% 29.88 in 10.0 mi SSW 6.9 mph - N/A   Clear
3:53 PM 64.9 °F 57.0 °F 75% 29.87 in 10.0 mi SSW 6.9 mph - N/A   Clear
4:53 PM 64.0 °F 55.0 °F 73% 29.87 in 10.0 mi South 3.5 mph - N/A   Scattered Clouds
5:53 PM 64.0 °F 54.0 °F 70% 29.86 in 10.0 mi Variable 3.5 mph - N/A   Scattered Clouds
6:53 PM 64.0 °F 54.0 °F 70% 29.86 in 10.0 mi Calm Calm - N/A   Clear
7:53 PM 62.1 °F 54.0 °F 75% 29.86 in 10.0 mi Calm Calm - N/A   Clear
8:53 PM 59.0 °F 52.0 °F 78% 29.86 in 10.0 mi East 4.6 mph - N/A   Clear
9:53 PM 57.0 °F 52.0 °F 83% 29.85 in 10.0 mi East 5.8 mph - N/A   Clear
10:53 PM 57.0 °F 51.1 °F 81% 29.85 in 10.0 mi Calm Calm - N/A   Clear
11:53 PM 54.0 °F 50.0 °F 86% 29.84 in 10.0 mi East 3.5 mph - N/A   Clear